Location: Unspecified
(0.0000°N, 0.0000°E)
Time: 11:15:30
(UTC+01:00)

NOAA 12 - Visible Passes

Search period start: 25 January 2015 00:00
Search period end: 04 February 2015 00:00
Orbit: 797 x 815 km, 98.6° (Epoch: 24 January)

Date Brightness Start Highest point End Pass type
(mag) Time Alt. Az. Time Alt. Az. Time Alt. Az.
25 Jan 4.7 20:31:25 10° S 20:36:34 57° WSW 20:41:43 10° NNW visible
26 Jan 4.0 20:06:32 10° SSE 20:11:45 72° ENE 20:17:00 10° N visible
27 Jan 4.6 19:42:12 10° SE 19:46:55 35° ENE 19:51:43 10° NNE visible
27 Jan 7.0 21:23:47 10° SW 21:26:39 14° W 21:29:10 10° WNW visible
28 Jan 6.1 20:57:15 10° SSW 21:01:45 28° WSW 21:06:08 10° NW visible
29 Jan 4.7 20:31:45 10° S 20:36:54 57° WSW 20:42:03 10° NNW visible
30 Jan 4.0 20:06:51 10° SSE 20:12:05 72° ENE 20:17:20 10° N visible
31 Jan 4.6 19:42:31 10° SE 19:47:16 36° ENE 19:52:04 10° NNE visible
31 Jan 7.0 21:24:09 10° SW 21:26:59 14° W 21:29:28 10° WNW visible
01 Feb 6.1 20:57:34 10° SSW 21:02:05 28° WSW 21:06:28 10° NW visible
02 Feb 4.8 20:32:05 10° S 20:37:14 56° WSW 20:42:22 10° NNW visible
03 Feb 4.0 20:07:10 10° SSE 20:12:24 73° ENE 20:17:40 10° N visible
